Time,TemperatureF,DewpointF,PressureIn,WindDirection,WindDirectionDegrees,WindSpeedMPH,WindSpeedGustMPH,Humidity,HourlyPrecipIn,Conditions,Clouds,dailyrainin,SoftwareType,DateUTC
2013-04-17 00:00:00,37.6,32.6,30.44,SW,225,0.0,0.0,82,0.00,,---,0.00,VWS V14.01,2013-04-17 07:00:00,
2013-04-17 00:05:00,37.4,32.4,30.47,SW,225,0.0,0.0,82,0.00,,---,0.00,VWS V14.01,2013-04-17 07:05:00,
2013-04-17 00:10:00,37.2,32.8,30.47,SW,225,0.0,0.0,84,0.00,,---,0.00,VWS V14.01,2013-04-17 07:10:00,
2013-04-17 00:15:00,36.9,32.8,30.47,West,270,0.0,0.0,85,0.00,,---,0.00,VWS V14.01,2013-04-17 07:15:00,
2013-04-17 00:20:00,36.9,32.5,30.47,West,270,0.0,0.0,84,0.00,,---,0.00,VWS V14.01,2013-04-17 07:20:00,
2013-04-17 00:25:00,36.7,32.6,30.47,West,270,0.0,0.0,85,0.00,,---,0.00,VWS V14.01,2013-04-17 07:25:00,
2013-04-17 00:30:00,36.3,32.2,30.47,West,270,0.0,0.0,85,0.00,,---,0.00,VWS V14.01,2013-04-17 07:30:00,
2013-04-17 00:35:00,36.1,32.1,30.47,West,270,0.0,0.0,85,0.00,,---,0.00,VWS V14.01,2013-04-17 07:35:00,
2013-04-17 00:40:00,36.0,31.9,30.47,West,270,0.0,0.0,85,0.00,,---,0.00,VWS V14.01,2013-04-17 07:40:00,
2013-04-17 00:46:00,35.8,32.0,30.47,West,270,0.0,0.0,86,0.00,,---,0.00,VWS V14.01,2013-04-17 07:46:00,
2013-04-17 00:51:00,35.6,31.8,30.47,West,270,0.0,0.0,86,0.00,,---,0.00,VWS V14.01,2013-04-17 07:51:00,
2013-04-17 00:56:00,35.4,31.9,30.47,West,270,0.0,0.0,87,0.00,,---,0.00,VWS V14.01,2013-04-17 07:56:00,
2013-04-17 01:01:00,35.1,31.6,30.47,West,270,0.0,0.0,87,0.00,,---,0.00,VWS V14.01,2013-04-17 08:01:00,
2013-04-17 01:06:00,35.1,31.6,30.47,West,270,0.0,0.0,87,0.00,,---,0.00,VWS V14.01,2013-04-17 08:06:00,
2013-04-17 01:11:00,35.1,31.6,30.47,West,270,0.0,0.0,87,0.00,,---,0.00,VWS V14.01,2013-04-17 08:11:00,
2013-04-17 01:16:00,34.7,31.5,30.47,West,270,0.0,0.0,88,0.00,,---,0.00,VWS V14.01,2013-04-17 08:16:00,
2013-04-17 01:21:00,34.7,31.2,30.47,West,270,0.0,0.0,87,0.00,,---,0.00,VWS V14.01,2013-04-17 08:21:00,
2013-04-17 01:26:00,34.5,31.1,30.47,West,270,0.0,0.0,87,0.00,,---,0.00,VWS V14.01,2013-04-17 08:26:00,
2013-04-17 01:32:00,34.3,30.9,30.47,West,270,0.0,0.0,87,0.00,,---,0.00,VWS V14.01,2013-04-17 08:32:00,
2013-04-17 01:37:00,34.0,30.8,30.47,West,270,0.0,0.0,88,0.00,,---,0.00,VWS V14.01,2013-04-17 08:37:00,
2013-04-17 01:42:00,34.0,30.8,30.47,West,270,0.0,0.0,88,0.00,,---,0.00,VWS V14.01,2013-04-17 08:42:00,
2013-04-17 01:47:00,33.8,30.6,30.47,West,270,0.0,0.0,88,0.00,,---,0.00,VWS V14.01,2013-04-17 08:47:00,
2013-04-17 01:52:00,33.8,30.6,30.47,West,270,0.0,0.0,88,0.00,,---,0.00,VWS V14.01,2013-04-17 08:52:00,
2013-04-17 01:57:00,33.6,30.7,30.47,West,270,0.0,0.0,89,0.00,,---,0.00,VWS V14.01,2013-04-17 08:57:00,
2013-04-17 02:02:00,33.4,30.5,30.47,West,270,0.0,0.0,89,0.00,,---,0.00,VWS V14.01,2013-04-17 09:02:00,
2013-04-17 02:08:00,33.3,30.4,30.47,West,270,0.0,0.0,89,0.00,,---,0.00,VWS V14.01,2013-04-17 09:08:00,
2013-04-17 02:13:00,33.1,30.2,30.47,West,270,0.0,0.0,89,0.00,,---,0.00,VWS V14.01,2013-04-17 09:13:00,
2013-04-17 02:18:00,33.1,30.2,30.47,West,270,0.0,0.0,89,0.00,,---,0.00,VWS V14.01,2013-04-17 09:18:00,
2013-04-17 02:23:00,33.1,30.2,30.47,West,270,0.0,0.0,89,0.00,,---,0.00,VWS V14.01,2013-04-17 09:23:00,
2013-04-17 02:28:00,33.1,30.2,30.47,West,270,0.0,0.0,89,0.00,,---,0.00,VWS V14.01,2013-04-17 09:28:00,
2013-04-17 02:33:00,33.1,30.5,30.47,West,270,0.0,0.0,90,0.00,,---,0.00,VWS V14.01,2013-04-17 09:33:00,
2013-04-17 02:38:00,33.1,30.2,30.47,West,270,0.0,0.0,89,0.00,,---,0.00,VWS V14.01,2013-04-17 09:38:00,
2013-04-17 02:43:00,33.1,30.5,30.47,West,270,0.0,0.0,90,0.00,,---,0.00,VWS V14.01,2013-04-17 09:43:00,
2013-04-17 02:48:00,33.3,30.6,30.47,West,270,0.0,0.0,90,0.00,,---,0.00,VWS V14.01,2013-04-17 09:48:00,
2013-04-17 02:53:00,33.1,30.5,30.47,West,270,0.0,0.0,90,0.00,,---,0.00,VWS V14.01,2013-04-17 09:53:00,
2013-04-17 02:58:00,33.1,30.7,30.47,West,270,0.0,0.0,91,0.00,,---,0.00,VWS V14.01,2013-04-17 09:58:00,
2013-04-17 03:03:00,33.1,30.7,30.47,West,270,0.0,0.0,91,0.00,,---,0.00,VWS V14.01,2013-04-17 10:03:00,
2013-04-17 03:08:00,33.1,30.7,30.47,West,270,0.0,0.0,91,0.00,,---,0.00,VWS V14.01,2013-04-17 10:08:00,
2013-04-17 03:13:00,33.1,31.0,30.47,West,270,0.0,0.0,92,0.00,,---,0.00,VWS V14.01,2013-04-17 10:13:00,
2013-04-17 03:18:00,33.3,31.2,30.47,West,270,0.0,0.0,92,0.00,,---,0.00,VWS V14.01,2013-04-17 10:18:00,
2013-04-17 03:24:00,33.4,31.4,30.47,West,270,0.0,0.0,92,0.00,,---,0.00,VWS V14.01,2013-04-17 10:24:00,
2013-04-17 03:29:00,33.6,31.5,30.47,West,270,0.0,0.0,92,0.00,,---,0.00,VWS V14.01,2013-04-17 10:29:00,
2013-04-17 03:34:00,33.8,31.5,30.47,West,270,0.0,0.0,91,0.00,,---,0.00,VWS V14.01,2013-04-17 10:34:00,
2013-04-17 03:39:00,33.8,31.5,30.47,West,270,0.0,0.0,91,0.00,,---,0.00,VWS V14.01,2013-04-17 10:39:00,
2013-04-17 03:44:00,33.8,31.5,30.47,West,270,0.0,0.0,91,0.00,,---,0.00,VWS V14.01,2013-04-17 10:44:00,
2013-04-17 03:49:00,33.8,31.5,30.47,WNW,292,0.0,0.0,91,0.00,,---,0.00,VWS V14.01,2013-04-17 10:49:00,
2013-04-17 03:54:00,34.0,31.9,30.47,WNW,292,0.0,0.0,92,0.00,,---,0.00,VWS V14.01,2013-04-17 10:54:00,
2013-04-17 03:59:00,34.0,31.9,30.47,West,270,0.0,0.0,92,0.00,,---,0.00,VWS V14.01,2013-04-17 10:59:00,
2013-04-17 04:04:00,34.0,31.9,30.47,NW,315,0.0,0.0,92,0.00,,---,0.00,VWS V14.01,2013-04-17 11:04:00,
2013-04-17 04:09:00,34.0,31.9,30.47,NW,315,0.0,0.0,92,0.00,,---,0.00,VWS V14.01,2013-04-17 11:09:00,
2013-04-17 04:14:00,34.0,31.9,30.47,SSE,158,0.0,0.0,92,0.00,,---,0.00,VWS V14.01,2013-04-17 11:14:00,
2013-04-17 04:20:00,34.0,31.9,30.47,SSE,158,0.0,0.0,92,0.00,,---,0.00,VWS V14.01,2013-04-17 11:20:00,
2013-04-17 04:25:00,33.8,31.7,30.47,South,180,0.0,0.0,92,0.00,,---,0.00,VWS V14.01,2013-04-17 11:25:00,
2013-04-17 04:30:00,33.8,32.0,30.47,South,180,0.0,0.0,93,0.00,,---,0.00,VWS V14.01,2013-04-17 11:30:00,
2013-04-17 04:35:00,34.0,32.2,30.47,South,180,0.0,0.0,93,0.00,,---,0.00,VWS V14.01,2013-04-17 11:35:00,
2013-04-17 04:40:00,34.0,32.2,30.47,South,180,0.0,0.0,93,0.00,,---,0.00,VWS V14.01,2013-04-17 11:40:00,
2013-04-17 04:45:00,34.0,32.2,30.47,South,180,0.0,0.0,93,0.00,,---,0.00,VWS V14.01,2013-04-17 11:45:00,
2013-04-17 04:50:00,34.0,32.2,30.47,South,180,0.0,0.0,93,0.00,,---,0.00,VWS V14.01,2013-04-17 11:50:00,
2013-04-17 04:55:00,34.0,32.2,30.47,South,180,0.0,0.0,93,0.00,,---,0.00,VWS V14.01,2013-04-17 11:55:00,
2013-04-17 05:00:00,34.0,32.2,30.47,South,180,0.0,0.0,93,0.00,,---,0.00,VWS V14.01,2013-04-17 12:00:00,
2013-04-17 05:05:00,34.0,32.2,30.50,South,180,0.0,0.0,93,0.00,,---,0.00,VWS V14.01,2013-04-17 12:05:00,
2013-04-17 05:10:00,34.0,32.4,30.50,South,180,0.0,0.0,94,0.00,,---,0.00,VWS V14.01,2013-04-17 12:10:00,
2013-04-17 05:16:00,34.0,32.4,30.50,South,180,0.0,0.0,94,0.00,,---,0.00,VWS V14.01,2013-04-17 12:16:00,
2013-04-17 05:21:00,34.0,32.2,30.50,South,180,0.0,0.0,93,0.00,,---,0.00,VWS V14.01,2013-04-17 12:21:00,
2013-04-17 05:26:00,33.8,32.0,30.50,South,180,0.0,0.0,93,0.00,,---,0.00,VWS V14.01,2013-04-17 12:26:00,
2013-04-17 05:32:00,33.8,32.0,30.50,South,180,0.0,0.0,93,0.00,,---,0.00,VWS V14.01,2013-04-17 12:32:00,
2013-04-17 05:37:00,33.8,32.3,30.50,South,180,0.0,0.0,94,0.00,,---,0.00,VWS V14.01,2013-04-17 12:37:00,
2013-04-17 05:42:00,33.8,32.3,30.50,South,180,0.0,0.0,94,0.00,,---,0.00,VWS V14.01,2013-04-17 12:42:00,
2013-04-17 05:47:00,33.8,32.3,30.50,South,180,0.0,0.0,94,0.00,,---,0.00,VWS V14.01,2013-04-17 12:47:00,
2013-04-17 05:52:00,33.8,32.3,30.50,South,180,0.0,0.0,94,0.00,,---,0.00,VWS V14.01,2013-04-17 12:52:00,
2013-04-17 05:57:00,33.8,32.3,30.50,South,180,0.0,0.0,94,0.00,,---,0.00,VWS V14.01,2013-04-17 12:57:00,
2013-04-17 06:02:00,34.0,32.7,30.50,South,180,0.0,0.0,95,0.00,,---,0.00,VWS V14.01,2013-04-17 13:02:00,
2013-04-17 06:07:00,33.8,32.3,30.50,South,180,0.0,0.0,94,0.00,,---,0.00,VWS V14.01,2013-04-17 13:07:00,
2013-04-17 06:12:00,33.8,32.3,30.50,South,180,0.0,0.0,94,0.00,,---,0.00,VWS V14.01,2013-04-17 13:12:00,
2013-04-17 06:17:00,33.8,32.3,30.50,South,180,0.0,0.0,94,0.00,,---,0.00,VWS V14.01,2013-04-17 13:17:00,
2013-04-17 06:23:00,33.8,32.3,30.50,South,180,0.0,0.0,94,0.00,,---,0.00,VWS V14.01,2013-04-17 13:23:00,
2013-04-17 06:28:00,34.0,32.4,30.50,SSE,158,0.0,0.0,94,0.00,,---,0.00,VWS V14.01,2013-04-17 13:28:00,
2013-04-17 06:33:00,34.0,32.7,30.50,South,180,0.0,0.0,95,0.00,,---,0.00,VWS V14.01,2013-04-17 13:33:00,
2013-04-17 06:38:00,34.0,32.7,30.50,South,180,0.0,0.0,95,0.00,,---,0.00,VWS V14.01,2013-04-17 13:38:00,
2013-04-17 06:43:00,34.0,32.7,30.50,South,180,0.0,0.0,95,0.00,,---,0.00,VWS V14.01,2013-04-17 13:43:00,
2013-04-17 06:48:00,34.0,32.7,30.50,East,90,0.0,0.0,95,0.00,,---,0.00,VWS V14.01,2013-04-17 13:48:00,
2013-04-17 06:53:00,34.3,33.1,30.50,East,90,0.0,0.0,95,0.00,,---,0.00,VWS V14.01,2013-04-17 13:53:00,
2013-04-17 06:58:00,34.3,33.1,30.50,East,90,0.0,0.0,95,0.00,,---,0.00,VWS V14.01,2013-04-17 13:58:00,
2013-04-17 07:04:00,34.5,33.5,30.50,East,90,0.0,0.0,96,0.00,,---,0.00,VWS V14.01,2013-04-17 14:04:00,
2013-04-17 07:09:00,34.7,33.7,30.50,SSW,202,0.0,0.0,96,0.00,,---,0.00,VWS V14.01,2013-04-17 14:09:00,
2013-04-17 07:14:00,34.7,33.7,30.50,East,90,0.0,0.0,96,0.00,,---,0.00,VWS V14.01,2013-04-17 14:14:00,
2013-04-17 07:19:00,34.9,33.9,30.50,East,90,0.0,0.0,96,0.00,,---,0.00,VWS V14.01,2013-04-17 14:19:00,
2013-04-17 07:24:00,35.2,34.2,30.50,ENE,68,0.0,0.0,96,0.00,,---,0.00,VWS V14.01,2013-04-17 14:24:00,
2013-04-17 07:29:00,35.6,34.6,30.50,ENE,68,0.0,0.0,96,0.00,,---,0.00,VWS V14.01,2013-04-17 14:29:00,
2013-04-17 07:34:00,36.0,34.9,30.50,East,90,0.0,0.0,96,0.00,,---,0.00,VWS V14.01,2013-04-17 14:34:00,
2013-04-17 07:39:00,36.3,35.3,30.53,East,90,0.0,0.0,96,0.00,,---,0.00,VWS V14.01,2013-04-17 14:39:00,
2013-04-17 07:44:00,36.7,35.7,30.53,SSE,158,0.0,0.0,96,0.00,,---,0.00,VWS V14.01,2013-04-17 14:44:00,
2013-04-17 07:49:00,36.9,35.8,30.53,SSE,158,0.0,0.0,96,0.00,,---,0.00,VWS V14.01,2013-04-17 14:49:00,
2013-04-17 07:55:00,37.0,36.0,30.53,SSE,158,0.0,0.0,96,0.00,,---,0.00,VWS V14.01,2013-04-17 14:55:00,
2013-04-17 08:00:00,37.4,36.4,30.53,WSW,248,0.0,0.0,96,0.00,,---,0.00,VWS V14.01,2013-04-17 15:00:00,
2013-04-17 08:05:00,37.8,36.7,30.53,South,180,0.0,0.0,96,0.00,,---,0.00,VWS V14.01,2013-04-17 15:05:00,
2013-04-17 08:10:00,37.8,36.5,30.53,South,180,0.0,0.0,95,0.00,,---,0.00,VWS V14.01,2013-04-17 15:10:00,
2013-04-17 08:15:00,38.1,37.1,30.53,South,180,0.0,0.0,96,0.00,,---,0.00,VWS V14.01,2013-04-17 15:15:00,
2013-04-17 08:20:00,38.5,37.4,30.53,SW,225,0.0,0.0,96,0.00,,---,0.00,VWS V14.01,2013-04-17 15:20:00,
2013-04-17 08:25:00,39.2,38.2,30.53,SSE,158,0.0,0.0,96,0.00,,---,0.00,VWS V14.01,2013-04-17 15:25:00,
2013-04-17 08:30:00,39.6,38.5,30.53,South,180,0.0,0.0,96,0.00,,---,0.00,VWS V14.01,2013-04-17 15:30:00,
2013-04-17 08:36:00,40.1,39.0,30.53,SSE,158,0.0,0.0,96,0.00,,---,0.00,VWS V14.01,2013-04-17 15:36:00,
2013-04-17 08:41:00,40.3,39.2,30.53,South,180,0.0,0.0,96,0.00,,---,0.00,VWS V14.01,2013-04-17 15:41:00,
2013-04-17 08:46:00,40.6,39.3,30.53,SSW,202,0.0,0.0,95,0.00,,---,0.00,VWS V14.01,2013-04-17 15:46:00,
2013-04-17 08:51:00,41.2,39.9,30.53,SSW,202,0.0,0.0,95,0.00,,---,0.00,VWS V14.01,2013-04-17 15:51:00,
2013-04-17 08:56:00,41.4,40.0,30.53,South,180,0.0,0.0,95,0.00,,---,0.00,VWS V14.01,2013-04-17 15:56:00,
2013-04-17 09:01:00,41.7,40.1,30.53,SSW,202,0.0,0.0,94,0.00,,---,0.00,VWS V14.01,2013-04-17 16:01:00,
2013-04-17 09:06:00,42.3,40.7,30.53,WSW,248,0.0,0.0,94,0.00,,---,0.00,VWS V14.01,2013-04-17 16:06:00,
2013-04-17 09:11:00,43.3,41.7,30.53,WSW,248,0.0,0.0,94,0.00,,---,0.00,VWS V14.01,2013-04-17 16:11:00,
2013-04-17 09:16:00,43.5,41.6,30.53,South,180,0.0,1.3,93,0.00,,---,0.00,VWS V14.01,2013-04-17 16:16:00,
2013-04-17 09:21:00,44.6,42.4,30.53,West,270,0.0,0.0,92,0.00,,---,0.00,VWS V14.01,2013-04-17 16:21:00,
2013-04-17 09:27:00,45.5,43.0,30.53,West,270,0.0,0.0,91,0.00,,---,0.00,VWS V14.01,2013-04-17 16:27:00,
2013-04-17 09:32:00,45.1,41.5,30.53,NNE,22,0.0,0.0,87,0.00,,---,0.00,VWS V14.01,2013-04-17 16:32:00,
2013-04-17 09:37:00,46.0,42.1,30.53,West,270,0.0,0.0,86,0.00,,---,0.00,VWS V14.01,2013-04-17 16:37:00,
2013-04-17 09:42:00,48.6,44.3,30.53,ENE,68,0.0,0.0,85,0.00,,---,0.00,VWS V14.01,2013-04-17 16:42:00,
2013-04-17 09:47:00,50.9,45.6,30.53,WSW,248,0.0,0.0,82,0.00,,---,0.00,VWS V14.01,2013-04-17 16:47:00,
2013-04-17 09:52:00,53.6,47.3,30.53,SSW,202,0.0,0.0,79,0.00,,---,0.00,VWS V14.01,2013-04-17 16:52:00,
2013-04-17 09:57:00,55.6,47.8,30.53,SSE,158,0.0,0.0,75,0.00,,---,0.00,VWS V14.01,2013-04-17 16:57:00,
2013-04-17 10:02:00,56.3,46.3,30.53,WSW,248,2.5,3.1,69,0.00,,---,0.00,VWS V14.01,2013-04-17 17:02:00,
2013-04-17 10:08:00,56.7,44.6,30.53,West,270,0.0,2.5,64,0.00,,---,0.00,VWS V14.01,2013-04-17 17:08:00,
2013-04-17 10:13:00,56.1,42.0,30.53,North,0,0.0,0.0,59,0.00,,---,0.00,VWS V14.01,2013-04-17 17:13:00,
2013-04-17 10:18:00,59.4,45.0,30.53,SSW,202,3.8,4.3,59,0.00,,---,0.00,VWS V14.01,2013-04-17 17:18:00,
2013-04-17 10:23:00,60.3,44.0,30.53,SW,225,0.0,0.0,55,0.00,,---,0.00,VWS V14.01,2013-04-17 17:23:00,
2013-04-17 10:28:00,62.1,46.2,30.53,East,90,0.0,0.0,56,0.00,,---,0.00,VWS V14.01,2013-04-17 17:28:00,
2013-04-17 10:33:00,61.7,43.9,30.53,ENE,68,1.3,1.3,52,0.00,,---,0.00,VWS V14.01,2013-04-17 17:33:00,
2013-04-17 10:39:00,62.6,43.7,30.53,West,270,2.2,2.2,50,0.00,,---,0.00,VWS V14.01,2013-04-17 17:39:00,
2013-04-17 10:44:00,63.5,42.9,30.53,ENE,68,0.0,0.0,47,0.00,,---,0.00,VWS V14.01,2013-04-17 17:44:00,
2013-04-17 10:49:00,64.8,43.0,30.53,SW,225,2.5,2.7,45,0.00,,---,0.00,VWS V14.01,2013-04-17 17:49:00,
2013-04-17 10:54:00,64.9,41.9,30.53,West,270,0.0,0.0,43,0.00,,---,0.00,VWS V14.01,2013-04-17 17:54:00,
2013-04-17 10:59:00,65.7,42.0,30.53,ESE,112,3.1,3.1,42,0.00,,---,0.00,VWS V14.01,2013-04-17 17:59:00,
2013-04-17 11:04:00,65.7,40.7,30.53,SSE,158,0.0,2.7,40,0.00,,---,0.00,VWS V14.01,2013-04-17 18:04:00,
2013-04-17 11:09:00,62.6,36.7,30.53,West,270,1.3,2.2,38,0.00,,---,0.00,VWS V14.01,2013-04-17 18:09:00,
2013-04-17 11:14:00,64.6,39.1,30.53,SSW,202,2.2,2.2,39,0.00,,---,0.00,VWS V14.01,2013-04-17 18:14:00,
2013-04-17 11:19:00,64.2,38.1,30.53,NNE,22,1.6,1.6,38,0.00,,---,0.00,VWS V14.01,2013-04-17 18:19:00,
2013-04-17 11:24:00,63.1,38.5,30.53,SW,225,0.0,0.0,40,0.00,,---,0.00,VWS V14.01,2013-04-17 18:24:00,
2013-04-17 11:29:00,62.4,38.4,30.53,South,180,2.2,2.5,41,0.00,,---,0.00,VWS V14.01,2013-04-17 18:29:00,
2013-04-17 11:34:00,61.7,37.2,30.53,WSW,248,3.1,3.1,40,0.00,,---,0.00,VWS V14.01,2013-04-17 18:34:00,
2013-04-17 11:39:00,62.1,39.9,30.53,WSW,248,1.3,1.3,44,0.00,,---,0.00,VWS V14.01,2013-04-17 18:39:00,
2013-04-17 11:44:00,62.6,36.7,30.53,WNW,292,0.0,1.6,38,0.00,,---,0.00,VWS V14.01,2013-04-17 18:44:00,
2013-04-17 11:49:00,65.5,40.5,30.53,WNW,292,2.2,3.1,40,0.00,,---,0.00,VWS V14.01,2013-04-17 18:49:00,
2013-04-17 11:54:00,63.9,36.4,30.53,North,0,2.9,4.3,36,0.00,,---,0.00,VWS V14.01,2013-04-17 18:54:00,
2013-04-17 11:59:00,64.4,36.2,30.53,West,270,2.7,3.8,35,0.00,,---,0.00,VWS V14.01,2013-04-17 18:59:00,
2013-04-17 12:04:00,65.3,38.4,30.50,South,180,3.1,3.1,37,0.00,,---,0.00,VWS V14.01,2013-04-17 19:04:00,
2013-04-17 12:09:00,66.4,39.3,30.50,WSW,248,0.0,1.1,37,0.00,,---,0.00,VWS V14.01,2013-04-17 19:09:00,
2013-04-17 12:14:00,67.3,40.8,30.50,WSW,248,1.3,1.3,38,0.00,,---,0.00,VWS V14.01,2013-04-17 19:14:00,
2013-04-17 12:19:00,66.4,38.6,30.50,WSW,248,0.0,1.3,36,0.00,,---,0.00,VWS V14.01,2013-04-17 19:19:00,
2013-04-17 12:24:00,67.3,38.7,30.50,NW,315,1.3,2.0,35,0.00,,---,0.00,VWS V14.01,2013-04-17 19:24:00,
2013-04-17 12:29:00,68.4,38.9,30.50,NE,45,0.0,2.9,34,0.00,,---,0.00,VWS V14.01,2013-04-17 19:29:00,
2013-04-17 12:34:00,68.4,38.2,30.50,East,90,1.6,3.8,33,0.00,,---,0.00,VWS V14.01,2013-04-17 19:34:00,
2013-04-17 12:39:00,66.0,37.6,30.50,WNW,292,0.0,0.0,35,0.00,,---,0.00,VWS V14.01,2013-04-17 19:39:00,
2013-04-17 12:44:00,68.9,39.4,30.50,South,180,0.0,0.9,34,0.00,,---,0.00,VWS V14.01,2013-04-17 19:44:00,
2013-04-17 12:49:00,68.0,37.1,30.50,NW,315,1.3,2.7,32,0.00,,---,0.00,VWS V14.01,2013-04-17 19:49:00,
2013-04-17 12:54:00,68.0,37.1,30.50,South,180,3.1,4.3,32,0.00,,---,0.00,VWS V14.01,2013-04-17 19:54:00,
2013-04-17 12:59:00,67.5,37.4,30.50,SE,135,3.8,3.8,33,0.00,,---,0.00,VWS V14.01,2013-04-17 19:59:00,
2013-04-17 13:04:00,67.5,37.4,30.50,SW,225,2.7,2.9,33,0.00,,---,0.00,VWS V14.01,2013-04-17 20:04:00,
2013-04-17 13:09:00,68.2,37.2,30.50,West,270,3.4,3.8,32,0.00,,---,0.00,VWS V14.01,2013-04-17 20:09:00,
2013-04-17 13:14:00,66.6,35.8,30.50,North,0,2.9,4.3,32,0.00,,---,0.00,VWS V14.01,2013-04-17 20:14:00,
2013-04-17 13:19:00,66.9,36.9,30.47,West,270,2.7,3.1,33,0.00,,---,0.00,VWS V14.01,2013-04-17 20:19:00,
2013-04-17 13:24:00,66.4,36.4,30.47,North,0,2.5,2.9,33,0.00,,---,0.00,VWS V14.01,2013-04-17 20:24:00,
2013-04-17 13:29:00,64.8,35.0,30.47,NE,45,3.1,3.8,33,0.00,,---,0.00,VWS V14.01,2013-04-17 20:29:00,
2013-04-17 13:34:00,63.1,34.3,30.50,West,270,2.2,2.2,34,0.00,,---,0.00,VWS V14.01,2013-04-17 20:34:00,
2013-04-17 13:39:00,62.6,31.6,30.50,ENE,68,0.9,3.4,31,0.00,,---,0.00,VWS V14.01,2013-04-17 20:39:00,
2013-04-17 13:44:00,64.2,34.5,30.50,SSW,202,4.3,4.3,33,0.00,,---,0.00,VWS V14.01,2013-04-17 20:44:00,
2013-04-17 13:49:00,64.8,35.0,30.50,ENE,68,5.4,5.4,33,0.00,,---,0.00,VWS V14.01,2013-04-17 20:49:00,
2013-04-17 13:55:00,62.8,34.0,30.50,West,270,0.0,0.0,34,0.00,,---,0.00,VWS V14.01,2013-04-17 20:55:00,
2013-04-17 14:00:00,61.7,33.8,30.50,ENE,68,0.0,0.0,35,0.00,,---,0.00,VWS V14.01,2013-04-17 21:00:00,
2013-04-17 14:05:00,60.3,33.2,30.50,WSW,248,0.0,0.0,36,0.00,,---,0.00,VWS V14.01,2013-04-17 21:05:00,
2013-04-17 14:10:00,59.4,33.1,30.50,ESE,112,0.0,0.0,37,0.00,,---,0.00,VWS V14.01,2013-04-17 21:10:00,
2013-04-17 14:15:00,59.0,34.1,30.50,West,270,0.0,0.0,39,0.00,,---,0.00,VWS V14.01,2013-04-17 21:15:00,
2013-04-17 14:20:00,58.6,34.4,30.50,NNW,338,0.0,1.1,40,0.00,,---,0.00,VWS V14.01,2013-04-17 21:20:00,
2013-04-17 14:25:00,58.5,34.9,30.50,ENE,68,0.0,0.9,41,0.00,,---,0.00,VWS V14.01,2013-04-17 21:25:00,
2013-04-17 14:30:00,58.5,36.1,30.50,East,90,0.0,0.0,43,0.00,,---,0.00,VWS V14.01,2013-04-17 21:30:00,
2013-04-17 14:35:00,58.6,36.8,30.50,NNE,22,0.0,0.9,44,0.00,,---,0.00,VWS V14.01,2013-04-17 21:35:00,
2013-04-17 14:40:00,59.2,36.7,30.50,West,270,0.0,0.0,43,0.00,,---,0.00,VWS V14.01,2013-04-17 21:40:00,
2013-04-17 14:45:00,59.9,37.4,30.50,West,270,0.0,1.1,43,0.00,,---,0.00,VWS V14.01,2013-04-17 21:45:00,
2013-04-17 14:50:00,60.4,36.0,30.50,NNE,22,0.0,0.0,40,0.00,,---,0.00,VWS V14.01,2013-04-17 21:50:00,
2013-04-17 14:55:00,60.6,36.8,30.50,North,0,0.0,0.0,41,0.00,,---,0.00,VWS V14.01,2013-04-17 21:55:00,
2013-04-17 15:00:00,60.4,37.3,30.50,West,270,1.1,1.1,42,0.00,,---,0.00,VWS V14.01,2013-04-17 22:00:00,
2013-04-17 15:06:00,59.7,35.4,30.50,WSW,248,2.0,2.0,40,0.00,,---,0.00,VWS V14.01,2013-04-17 22:06:00,
2013-04-17 15:11:00,60.1,36.9,30.50,NW,315,0.0,0.0,42,0.00,,---,0.00,VWS V14.01,2013-04-17 22:11:00,
2013-04-17 15:16:00,60.1,36.3,30.50,NNW,338,2.5,2.5,41,0.00,,---,0.00,VWS V14.01,2013-04-17 22:16:00,
2013-04-17 15:21:00,59.4,35.7,30.50,NNE,22,2.5,2.7,41,0.00,,---,0.00,VWS V14.01,2013-04-17 22:21:00,
2013-04-17 15:26:00,59.4,36.3,30.50,SSW,202,0.0,0.0,42,0.00,,---,0.00,VWS V14.01,2013-04-17 22:26:00,
2013-04-17 15:31:00,59.2,36.7,30.50,NNW,338,0.0,0.0,43,0.00,,---,0.00,VWS V14.01,2013-04-17 22:31:00,
2013-04-17 15:36:00,58.6,36.8,30.50,SW,225,0.9,2.5,44,0.00,,---,0.00,VWS V14.01,2013-04-17 22:36:00,
2013-04-17 15:41:00,57.9,36.7,30.50,ENE,68,3.6,3.6,45,0.00,,---,0.00,VWS V14.01,2013-04-17 22:41:00,
2013-04-17 15:46:00,57.0,36.5,30.50,ENE,68,0.9,3.6,46,0.00,,---,0.00,VWS V14.01,2013-04-17 22:46:00,
2013-04-17 15:51:00,56.8,36.8,30.50,North,0,0.0,2.5,47,0.00,,---,0.00,VWS V14.01,2013-04-17 22:51:00,
2013-04-17 15:56:00,56.5,36.0,30.50,NNE,22,0.0,1.6,46,0.00,,---,0.00,VWS V14.01,2013-04-17 22:56:00,
2013-04-17 16:01:00,56.1,36.2,30.50,NE,45,0.0,1.3,47,0.00,,---,0.00,VWS V14.01,2013-04-17 23:01:00,
2013-04-17 16:07:00,55.8,35.8,30.47,NNE,22,1.6,1.6,47,0.00,,---,0.00,VWS V14.01,2013-04-17 23:07:00,
2013-04-17 16:12:00,55.6,35.7,30.47,East,90,0.0,0.0,47,0.00,,---,0.00,VWS V14.01,2013-04-17 23:12:00,
2013-04-17 16:17:00,55.8,35.8,30.47,NE,45,1.6,2.0,47,0.00,,---,0.00,VWS V14.01,2013-04-17 23:17:00,
2013-04-17 16:22:00,55.8,35.8,30.47,NE,45,0.0,1.6,47,0.00,,---,0.00,VWS V14.01,2013-04-17 23:22:00,
2013-04-17 16:27:00,55.9,36.5,30.47,NNW,338,0.0,0.0,48,0.00,,---,0.00,VWS V14.01,2013-04-17 23:27:00,
2013-04-17 16:32:00,56.1,36.7,30.47,SSE,158,0.0,0.0,48,0.00,,---,0.00,VWS V14.01,2013-04-17 23:32:00,
2013-04-17 16:37:00,56.1,36.7,30.47,North,0,0.0,0.0,48,0.00,,---,0.00,VWS V14.01,2013-04-17 23:37:00,
2013-04-17 16:42:00,56.3,37.4,30.47,NE,45,1.1,2.5,49,0.00,,---,0.00,VWS V14.01,2013-04-17 23:42:00,
2013-04-17 16:47:00,55.9,37.6,30.47,NE,45,0.0,1.6,50,0.00,,---,0.00,VWS V14.01,2013-04-17 23:47:00,
2013-04-17 16:52:00,55.2,36.9,30.47,ENE,68,0.0,0.0,50,0.00,,---,0.00,VWS V14.01,2013-04-17 23:52:00,
2013-04-17 16:57:00,55.0,37.3,30.47,West,270,0.0,0.0,51,0.00,,---,0.00,VWS V14.01,2013-04-17 23:57:00,
2013-04-17 17:03:00,55.0,37.3,30.47,NW,315,0.0,0.0,51,0.00,,---,0.00,VWS V14.01,2013-04-18 00:03:00,
2013-04-17 17:08:00,55.2,37.4,30.50,NW,315,0.0,0.0,51,0.00,,---,0.00,VWS V14.01,2013-04-18 00:08:00,
2013-04-17 17:13:00,55.4,37.1,30.50,NW,315,0.0,0.0,50,0.00,,---,0.00,VWS V14.01,2013-04-18 00:13:00,
2013-04-17 17:18:00,55.0,36.8,30.50,NW,315,0.0,0.0,50,0.00,,---,0.00,VWS V14.01,2013-04-18 00:18:00,
2013-04-17 17:23:00,55.0,37.3,30.50,ENE,68,0.0,0.0,51,0.00,,---,0.00,VWS V14.01,2013-04-18 00:23:00,
2013-04-17 17:28:00,54.7,37.4,30.50,NE,45,0.0,0.0,52,0.00,,---,0.00,VWS V14.01,2013-04-18 00:28:00,
2013-04-17 17:33:00,54.3,37.1,30.50,NW,315,0.0,0.0,52,0.00,,---,0.00,VWS V14.01,2013-04-18 00:33:00,
2013-04-17 17:38:00,54.3,37.1,30.50,SSW,202,0.0,0.0,52,0.00,,---,0.00,VWS V14.01,2013-04-18 00:38:00,
2013-04-17 17:44:00,54.1,36.9,30.50,West,270,0.0,0.0,52,0.00,,---,0.00,VWS V14.01,2013-04-18 00:44:00,
2013-04-17 17:49:00,54.1,37.4,30.50,West,270,0.0,0.0,53,0.00,,---,0.00,VWS V14.01,2013-04-18 00:49:00,
2013-04-17 17:54:00,54.3,37.6,30.50,West,270,0.0,0.0,53,0.00,,---,0.00,VWS V14.01,2013-04-18 00:54:00,
2013-04-17 17:59:00,54.3,38.5,30.50,WSW,248,0.0,0.0,55,0.00,,---,0.00,VWS V14.01,2013-04-18 00:59:00,
2013-04-17 18:04:00,54.7,37.9,30.50,WSW,248,2.9,2.9,53,0.00,,---,0.00,VWS V14.01,2013-04-18 01:04:00,
2013-04-17 18:09:00,54.9,35.6,30.50,West,270,0.0,2.7,48,0.00,,---,0.00,VWS V14.01,2013-04-18 01:09:00,
2013-04-17 18:15:00,55.2,34.8,30.50,WSW,248,1.1,3.6,46,0.00,,---,0.00,VWS V14.01,2013-04-18 01:15:00,
2013-04-17 18:20:00,55.4,32.7,30.50,West,270,3.1,3.1,42,0.00,,---,0.00,VWS V14.01,2013-04-18 01:20:00,
2013-04-17 18:25:00,55.4,33.3,30.50,WNW,292,2.0,2.0,43,0.00,,---,0.00,VWS V14.01,2013-04-18 01:25:00,
2013-04-17 18:30:00,55.4,32.7,30.50,West,270,0.0,2.7,42,0.00,,---,0.00,VWS V14.01,2013-04-18 01:30:00,
2013-04-17 18:35:00,55.0,34.1,30.50,WNW,292,1.3,1.3,45,0.00,,---,0.00,VWS V14.01,2013-04-18 01:35:00,
2013-04-17 18:40:00,54.5,33.0,30.50,West,270,0.0,2.5,44,0.00,,---,0.00,VWS V14.01,2013-04-18 01:40:00,
2013-04-17 18:45:00,54.0,33.1,30.50,NW,315,2.7,2.7,45,0.00,,---,0.00,VWS V14.01,2013-04-18 01:45:00,
2013-04-17 18:50:00,53.4,33.2,30.50,NNE,22,0.0,0.0,46,0.00,,---,0.00,VWS V14.01,2013-04-18 01:50:00,
2013-04-17 18:55:00,53.1,33.4,30.50,West,270,0.0,0.9,47,0.00,,---,0.00,VWS V14.01,2013-04-18 01:55:00,
2013-04-17 19:01:00,52.7,33.0,30.50,West,270,0.0,1.3,47,0.00,,---,0.00,VWS V14.01,2013-04-18 02:01:00,
2013-04-17 19:06:00,52.3,33.2,30.50,WNW,292,0.0,0.0,48,0.00,,---,0.00,VWS V14.01,2013-04-18 02:06:00,
2013-04-17 19:11:00,52.0,33.9,30.50,West,270,2.0,2.0,50,0.00,,---,0.00,VWS V14.01,2013-04-18 02:11:00,
2013-04-17 19:16:00,51.6,34.1,30.50,WNW,292,0.0,0.0,51,0.00,,---,0.00,VWS V14.01,2013-04-18 02:16:00,
2013-04-17 19:21:00,51.1,34.1,30.50,NW,315,0.0,0.0,52,0.00,,---,0.00,VWS V14.01,2013-04-18 02:21:00,
2013-04-17 19:26:00,50.7,34.2,30.50,West,270,0.0,0.0,53,0.00,,---,0.00,VWS V14.01,2013-04-18 02:26:00,
2013-04-17 19:31:00,50.4,33.9,30.50,WNW,292,0.0,0.0,53,0.00,,---,0.00,VWS V14.01,2013-04-18 02:31:00,
2013-04-17 19:36:00,50.0,34.0,30.50,NW,315,0.0,1.3,54,0.00,,---,0.00,VWS V14.01,2013-04-18 02:36:00,
2013-04-17 19:41:00,49.8,34.3,30.50,West,270,0.0,0.0,55,0.00,,---,0.00,VWS V14.01,2013-04-18 02:41:00,
2013-04-17 19:46:00,49.5,34.0,30.50,West,270,0.9,0.9,55,0.00,,---,0.00,VWS V14.01,2013-04-18 02:46:00,
2013-04-17 19:51:00,49.3,34.3,30.50,WNW,292,0.0,0.0,56,0.00,,---,0.00,VWS V14.01,2013-04-18 02:51:00,
2013-04-17 19:56:00,48.9,34.4,30.50,West,270,0.0,2.5,57,0.00,,---,0.00,VWS V14.01,2013-04-18 02:56:00,
2013-04-17 20:01:00,48.7,34.2,30.50,NNW,338,0.0,0.0,57,0.00,,---,0.00,VWS V14.01,2013-04-18 03:01:00,
2013-04-17 20:06:00,48.4,33.9,30.50,NNW,338,0.0,0.0,57,0.00,,---,0.00,VWS V14.01,2013-04-18 03:06:00,
2013-04-17 20:11:00,48.2,33.7,30.50,NNW,338,0.0,0.0,57,0.00,,---,0.00,VWS V14.01,2013-04-18 03:11:00,
2013-04-17 20:17:00,48.0,34.0,30.50,NNW,338,0.0,0.0,58,0.00,,---,0.00,VWS V14.01,2013-04-18 03:17:00,
2013-04-17 20:22:00,47.8,34.2,30.50,NNW,338,0.0,0.0,59,0.00,,---,0.00,VWS V14.01,2013-04-18 03:22:00,
2013-04-17 20:27:00,47.8,34.6,30.50,West,270,0.0,0.0,60,0.00,,---,0.00,VWS V14.01,2013-04-18 03:27:00,
2013-04-17 20:32:00,47.7,34.9,30.50,West,270,0.0,0.0,61,0.00,,---,0.00,VWS V14.01,2013-04-18 03:32:00,
2013-04-17 20:37:00,47.7,34.9,30.50,WNW,292,0.0,0.0,61,0.00,,---,0.00,VWS V14.01,2013-04-18 03:37:00,
2013-04-17 20:42:00,47.5,35.1,30.50,West,270,0.0,0.0,62,0.00,,---,0.00,VWS V14.01,2013-04-18 03:42:00,
2013-04-17 20:47:00,47.3,35.0,30.50,West,270,0.0,0.0,62,0.00,,---,0.00,VWS V14.01,2013-04-18 03:47:00,
2013-04-17 20:52:00,47.3,35.4,30.50,West,270,0.0,0.0,63,0.00,,---,0.00,VWS V14.01,2013-04-18 03:52:00,
2013-04-17 20:57:00,46.9,35.4,30.50,West,270,0.0,0.0,64,0.00,,---,0.00,VWS V14.01,2013-04-18 03:57:00,
2013-04-17 21:01:00,46.9,35.4,30.50,WNW,292,0.0,0.0,64,0.00,,---,0.00,VWS V14.01,2013-04-18 04:01:00,
2013-04-17 21:02:00,46.8,34.8,30.50,WNW,292,0.0,0.0,63,0.00,,---,0.00,VWS V14.01,2013-04-18 04:02:00,
2013-04-17 21:04:00,46.8,35.2,30.50,WNW,292,0.0,0.0,64,0.00,,---,0.00,VWS V14.01,2013-04-18 04:04:00,
2013-04-17 21:09:00,46.6,35.1,30.50,WNW,292,0.0,0.0,64,0.00,,---,0.00,VWS V14.01,2013-04-18 04:09:00,
2013-04-17 21:14:00,46.4,35.3,30.50,WNW,292,0.0,0.0,65,0.00,,---,0.00,VWS V14.01,2013-04-18 04:14:00,
2013-04-17 21:19:00,46.4,35.3,30.50,WNW,292,0.0,0.0,65,0.00,,---,0.00,VWS V14.01,2013-04-18 04:19:00,
2013-04-17 21:24:00,46.4,36.0,30.50,West,270,0.0,0.0,67,0.00,,---,0.00,VWS V14.01,2013-04-18 04:24:00,
2013-04-17 21:29:00,46.4,36.4,30.50,West,270,0.0,0.0,68,0.00,,---,0.00,VWS V14.01,2013-04-18 04:29:00,
2013-04-17 21:35:00,46.2,36.3,30.50,West,270,0.0,0.0,68,0.00,,---,0.00,VWS V14.01,2013-04-18 04:35:00,
2013-04-17 21:40:00,46.0,36.1,30.50,West,270,0.0,0.0,68,0.00,,---,0.00,VWS V14.01,2013-04-18 04:40:00,
2013-04-17 21:45:00,46.0,36.5,30.50,West,270,0.0,0.0,69,0.00,,---,0.00,VWS V14.01,2013-04-18 04:45:00,
2013-04-17 21:50:00,45.9,36.3,30.50,West,270,0.0,0.0,69,0.00,,---,0.00,VWS V14.01,2013-04-18 04:50:00,
2013-04-17 21:55:00,45.5,35.9,30.50,West,270,0.0,0.0,69,0.00,,---,0.00,VWS V14.01,2013-04-18 04:55:00,
2013-04-17 22:00:00,45.3,35.8,30.50,West,270,0.0,0.0,69,0.00,,---,0.00,VWS V14.01,2013-04-18 05:00:00,
2013-04-17 22:05:00,45.1,36.0,30.50,West,270,0.0,0.0,70,0.00,,---,0.00,VWS V14.01,2013-04-18 05:05:00,
2013-04-17 22:10:00,45.0,35.8,30.50,West,270,0.0,0.0,70,0.00,,---,0.00,VWS V14.01,2013-04-18 05:10:00,
2013-04-17 22:15:00,44.8,35.6,30.50,West,270,0.0,0.0,70,0.00,,---,0.00,VWS V14.01,2013-04-18 05:15:00,
2013-04-17 22:20:00,44.6,36.2,30.50,West,270,0.0,0.0,72,0.00,,---,0.00,VWS V14.01,2013-04-18 05:20:00,
2013-04-17 22:25:00,44.4,36.3,30.50,West,270,0.0,0.0,73,0.00,,---,0.00,VWS V14.01,2013-04-18 05:25:00,
2013-04-17 22:30:00,44.2,36.2,30.50,West,270,0.0,0.0,73,0.00,,---,0.00,VWS V14.01,2013-04-18 05:30:00,
2013-04-17 22:35:00,44.1,36.0,30.50,West,270,0.0,0.0,73,0.00,,---,0.00,VWS V14.01,2013-04-18 05:35:00,
2013-04-17 22:40:00,44.1,36.0,30.50,West,270,0.0,0.0,73,0.00,,---,0.00,VWS V14.01,2013-04-18 05:40:00,
2013-04-17 22:45:00,44.1,36.0,30.50,West,270,0.0,0.0,73,0.00,,---,0.00,VWS V14.01,2013-04-18 05:45:00,
2013-04-17 22:50:00,44.1,36.3,30.50,West,270,0.0,0.0,74,0.00,,---,0.00,VWS V14.01,2013-04-18 05:50:00,
2013-04-17 22:55:00,44.1,36.7,30.50,West,270,0.0,0.0,75,0.00,,---,0.00,VWS V14.01,2013-04-18 05:55:00,
2013-04-17 23:00:00,44.1,36.3,30.50,West,270,0.0,0.0,74,0.00,,---,0.00,VWS V14.01,2013-04-18 06:00:00,
2013-04-17 23:05:00,44.1,36.7,30.50,West,270,0.0,0.0,75,0.00,,---,0.00,VWS V14.01,2013-04-18 06:05:00,
2013-04-17 23:10:00,44.1,36.7,30.50,West,270,0.0,0.0,75,0.00,,---,0.00,VWS V14.01,2013-04-18 06:10:00,
2013-04-17 23:15:00,44.1,36.7,30.50,West,270,0.0,0.0,75,0.00,,---,0.00,VWS V14.01,2013-04-18 06:15:00,
2013-04-17 23:20:00,43.9,36.5,30.47,West,270,0.0,0.0,75,0.00,,---,0.00,VWS V14.01,2013-04-18 06:20:00,
2013-04-17 23:25:00,44.1,36.7,30.47,West,270,0.0,0.0,75,0.00,,---,0.00,VWS V14.01,2013-04-18 06:25:00,
2013-04-17 23:31:00,44.1,37.0,30.47,West,270,0.0,0.0,76,0.00,,---,0.00,VWS V14.01,2013-04-18 06:31:00,
2013-04-17 23:36:00,44.1,37.0,30.50,West,270,0.0,0.0,76,0.00,,---,0.00,VWS V14.01,2013-04-18 06:36:00,
2013-04-17 23:41:00,44.2,37.2,30.50,West,270,0.9,0.9,76,0.00,,---,0.00,VWS V14.01,2013-04-18 06:41:00,
2013-04-17 23:46:00,44.4,37.7,30.50,WNW,292,0.0,0.0,77,0.00,,---,0.00,VWS V14.01,2013-04-18 06:46:00,
2013-04-17 23:51:00,44.4,37.7,30.50,WNW,292,0.0,0.0,77,0.00,,---,0.00,VWS V14.01,2013-04-18 06:51:00,
2013-04-17 23:56:00,44.4,37.7,30.50,WNW,292,0.0,0.0,77,0.00,,---,0.00,VWS V14.01,2013-04-18 06:56:00,